When you browse on this site, cookies collect data to enhance your experience and personalize the content and advertising you see.
Visit our Privacy Policy to learn more. By continuing to use the site, you agree to this use of cookies and data.
  • In Austria
  • List of Countries
  • For 7 days
  • Water Temperature
  • Weather Map
  • News
  • Weather Widgets
  • user-avatar
    Login

    Hourly Weather Oran

    Today, 6 June, Saturday

    Time Temperature Precipitation Wind Pressure Humidity
    00:00 +24°C° 0 mm 3 mps 750 mmHg 45%
    01:00 +22°C° 0 mm 3 mps 750 mmHg 45%
    02:00 +22°C° 0 mm 3 mps 749 mmHg 44%
    03:00 +22°C° 0 mm 3 mps 749 mmHg 43%
    04:00 +24°C° 0 mm 3 mps 749 mmHg 43%
    05:00 +24°C° 0 mm 3 mps 749 mmHg 42%
    06:00 +24°C° 0 mm 3 mps 750 mmHg 41%
    07:00 +26°C° 0 mm 3 mps 749 mmHg 38%
    08:00 +27°C° 0 mm 2 mps 749 mmHg 35%
    09:00 +29°C° 0 mm 2 mps 749 mmHg 31%
    10:00 +30°C° 0 mm 3 mps 749 mmHg 31%
    11:00 +32°C° 0 mm 4 mps 749 mmHg 32%
    12:00 +33°C° 0 mm 4 mps 749 mmHg 32%
    13:00 +33°C° 0 mm 5 mps 748 mmHg 32%
    14:00 +33°C° 0 mm 5 mps 748 mmHg 33%
    15:00 +32°C° 0 mm 5 mps 747 mmHg 34%
    16:00 +32°C° 0 mm 4 mps 747 mmHg 34%
    17:00 +30°C° 0 mm 3 mps 746 mmHg 35%
    18:00 +30°C° 0 mm 3 mps 746 mmHg 35%
    19:00 +28°C° 0 mm 4 mps 746 mmHg 39%
    20:00 +27°C° 0 mm 5 mps 747 mmHg 42%
    21:00 +26°C° 0 mm 6 mps 747 mmHg 46%
    22:00 +24°C° 0.3 mm 6 mps 747 mmHg 48%
    23:00 +24°C° 0.3 mm 6 mps 747 mmHg 50%

    Tomorrow, 7 June, Sunday

    Time Temperature Precipitation Wind Pressure Humidity
    00:00 +23°C° 0.3 mm 7 mps 748 mmHg 51%
    01:00 +23°C° 0.3 mm 6 mps 748 mmHg 54%
    02:00 +23°C° 0.3 mm 6 mps 748 mmHg 56%
    03:00 +22°C° 0.3 mm 6 mps 748 mmHg 59%
    04:00 +22°C° 0 mm 6 mps 748 mmHg 59%
    05:00 +23°C° 0 mm 6 mps 748 mmHg 59%
    06:00 +23°C° 0 mm 6 mps 748 mmHg 59%
    07:00 +23°C° 0 mm 6 mps 748 mmHg 58%
    08:00 +24°C° 0 mm 6 mps 748 mmHg 57%
    09:00 +26°C° 0 mm 7 mps 749 mmHg 57%
    10:00 +27°C° 0 mm 7 mps 749 mmHg 54%
    11:00 +28°C° 0 mm 7 mps 749 mmHg 51%
    12:00 +29°C° 0 mm 7 mps 749 mmHg 48%
    13:00 +29°C° 0 mm 8 mps 748 mmHg 46%
    14:00 +29°C° 0 mm 8 mps 748 mmHg 45%
    15:00 +29°C° 0 mm 8 mps 748 mmHg 43%
    16:00 +28°C° 0 mm 8 mps 748 mmHg 46%
    17:00 +27°C° 0 mm 8 mps 748 mmHg 49%
    18:00 +26°C° 0 mm 8 mps 748 mmHg 51%
    19:00 +26°C° 0 mm 8 mps 748 mmHg 53%
    20:00 +24°C° 0 mm 7 mps 748 mmHg 54%
    21:00 +24°C° 0 mm 7 mps 749 mmHg 55%
    22:00 +23°C° 0 mm 7 mps 748 mmHg 56%
    23:00 +23°C° 0 mm 7 mps 748 mmHg 58%

    Day after tomorrow, 8 June, Monday

    Time Temperature Precipitation Wind Pressure Humidity
    00:00 +23°C° 0 mm 7 mps 748 mmHg 59%
    01:00 +22°C° 0 mm 7 mps 748 mmHg 61%
    02:00 +22°C° 0 mm 7 mps 748 mmHg 63%
    03:00 +22°C° 0 mm 7 mps 748 mmHg 65%
    04:00 +22°C° 0 mm 7 mps 748 mmHg 66%
    05:00 +21°C° 0 mm 7 mps 748 mmHg 67%
    06:00 +21°C° 0 mm 7 mps 748 mmHg 68%
    07:00 +22°C° 0 mm 7 mps 748 mmHg 63%
    08:00 +23°C° 0 mm 8 mps 749 mmHg 58%
    09:00 +26°C° 0 mm 8 mps 749 mmHg 54%
    10:00 +26°C° 0 mm 8 mps 749 mmHg 52%
    11:00 +27°C° 0 mm 9 mps 749 mmHg 50%
    12:00 +27°C° 0 mm 9 mps 749 mmHg 48%
    13:00 +27°C° 0 mm 9 mps 748 mmHg 47%
    14:00 +27°C° 0 mm 9 mps 748 mmHg 47%
    15:00 +27°C° 0 mm 9 mps 748 mmHg 47%
    16:00 +26°C° 0 mm 8 mps 748 mmHg 50%
    17:00 +24°C° 0 mm 7 mps 748 mmHg 52%
    18:00 +24°C° 0 mm 7 mps 748 mmHg 55%
    19:00 +23°C° 0 mm 6 mps 749 mmHg 57%
    20:00 +23°C° 0 mm 5 mps 749 mmHg 59%
    21:00 +22°C° 0 mm 5 mps 750 mmHg 60%
    22:00 +22°C° 0 mm 5 mps 750 mmHg 61%
    23:00 +21°C° 0 mm 5 mps 750 mmHg 62%

    9 June, Tuesday

    Time Temperature Precipitation Wind Pressure Humidity
    00:00 +21°C° 0 mm 5 mps 750 mmHg 63%
    01:00 +21°C° 0 mm 5 mps 750 mmHg 65%
    02:00 +20°C° 0 mm 4 mps 749 mmHg 66%
    03:00 +20°C° 0 mm 4 mps 749 mmHg 68%
    04:00 +20°C° 0 mm 4 mps 749 mmHg 68%
    05:00 +20°C° 0 mm 4 mps 750 mmHg 68%
    06:00 +20°C° 0 mm 3 mps 750 mmHg 68%
    07:00 +21°C° 0 mm 4 mps 750 mmHg 60%
    08:00 +22°C° 0 mm 4 mps 750 mmHg 53%
    09:00 +25°C° 0 mm 4 mps 751 mmHg 45%
    10:00 +25°C° 0 mm 4 mps 751 mmHg 45%
    11:00 +26°C° 0 mm 4 mps 751 mmHg 44%
    12:00 +27°C° 0 mm 4 mps 751 mmHg 44%
    13:00 +27°C° 0 mm 4 mps 751 mmHg 45%
    14:00 +27°C° 0 mm 4 mps 750 mmHg 46%
    15:00 +27°C° 0 mm 4 mps 750 mmHg 46%
    16:00 +26°C° 0 mm 4 mps 750 mmHg 49%
    17:00 +25°C° 0 mm 3 mps 750 mmHg 52%
    18:00 +25°C° 0 mm 3 mps 751 mmHg 55%
    19:00 +24°C° 0 mm 2 mps 751 mmHg 58%
    20:00 +23°C° 0 mm 1 mps 751 mmHg 62%
    21:00 +22°C° 0 mm 1 mps 752 mmHg 65%
    22:00 +22°C° 0 mm 1 mps 752 mmHg 67%
    23:00 +22°C° 0 mm 1 mps 752 mmHg 68%

    10 June, Wednesday

    Time Temperature Precipitation Wind Pressure Humidity
    00:00 +19°C° 0 mm 0 mps 751 mmHg 70%
    01:00 +19°C° 0 mm 0 mps 751 mmHg 71%
    02:00 +19°C° 0 mm 0 mps 751 mmHg 73%
    03:00 +18°C° 0 mm 0 mps 750 mmHg 74%
    04:00 +21°C° 0 mm 1 mps 751 mmHg 73%
    05:00 +21°C° 0 mm 1 mps 751 mmHg 71%
    06:00 +20°C° 0 mm 2 mps 751 mmHg 70%
    07:00 +23°C° 0 mm 2 mps 751 mmHg 63%
    08:00 +24°C° 0 mm 2 mps 751 mmHg 56%
    09:00 +25°C° 0 mm 2 mps 751 mmHg 49%
    10:00 +26°C° 0 mm 3 mps 751 mmHg 44%
    11:00 +27°C° 0 mm 3 mps 751 mmHg 40%
    12:00 +29°C° 0 mm 4 mps 751 mmHg 36%
    13:00 +29°C° 0 mm 5 mps 751 mmHg 36%
    14:00 +29°C° 0 mm 5 mps 751 mmHg 36%
    15:00 +29°C° 0 mm 6 mps 750 mmHg 36%
    16:00 +28°C° 0 mm 6 mps 750 mmHg 37%
    17:00 +28°C° 0 mm 6 mps 750 mmHg 38%
    18:00 +27°C° 0 mm 6 mps 750 mmHg 39%
    19:00 +26°C° 0 mm 5 mps 751 mmHg 40%
    20:00 +25°C° 0 mm 4 mps 751 mmHg 42%
    21:00 +25°C° 0 mm 4 mps 752 mmHg 43%
    22:00 +24°C° 0 mm 3 mps 752 mmHg 44%
    23:00 +24°C° 0 mm 3 mps 751 mmHg 45%

    11 June, Thursday

    Time Temperature Precipitation Wind Pressure Humidity
    00:00 +23°C° 0 mm 2 mps 751 mmHg 46%
    01:00 +23°C° 0 mm 2 mps 751 mmHg 48%
    02:00 +21°C° 0 mm 2 mps 751 mmHg 49%
    03:00 +21°C° 0 mm 3 mps 750 mmHg 50%
    04:00 +21°C° 0 mm 2 mps 751 mmHg 50%
    05:00 +23°C° 0 mm 2 mps 751 mmHg 49%
    06:00 +23°C° 0 mm 2 mps 751 mmHg 49%
    07:00 +25°C° 0 mm 2 mps 751 mmHg 42%
    08:00 +26°C° 0 mm 3 mps 751 mmHg 35%
    09:00 +28°C° 0 mm 3 mps 751 mmHg 27%
    10:00 +29°C° 0 mm 3 mps 751 mmHg 26%
    11:00 +30°C° 0 mm 4 mps 751 mmHg 24%
    12:00 +32°C° 0 mm 5 mps 750 mmHg 23%
    13:00 +32°C° 0 mm 5 mps 750 mmHg 24%
    14:00 +32°C° 0 mm 6 mps 750 mmHg 26%
    15:00 +32°C° 0 mm 6 mps 749 mmHg 27%
    16:00 +30°C° 0 mm 6 mps 749 mmHg 28%
    17:00 +29°C° 0 mm 6 mps 749 mmHg 29%
    18:00 +29°C° 0 mm 5 mps 749 mmHg 31%
    19:00 +28°C° 0 mm 5 mps 749 mmHg 32%
    20:00 +27°C° 0 mm 4 mps 749 mmHg 34%
    21:00 +26°C° 0 mm 3 mps 749 mmHg 36%
    22:00 +25°C° 0 mm 3 mps 749 mmHg 37%
    23:00 +25°C° 0 mm 2 mps 749 mmHg 37%
    Show more